    Observer details:
    033 Karl Schwarzschild Observatory, Tautenburg.  Observers U. Laux, S. Melnikov,
        B. Stecklum.  Measurer B. Stecklum.  1.34-m f/3 Schmidt + CCD.
    130 Lumezzane.  Observers A. Coffano, W. Marinello, M. Micheli, G. Pizzetti, A. 
       Soffiantini.  Measurer G. Pizzetti.  0.40-m f/5.9 reflector + CCD.
    160 Castelmartini.  Observers M. Jaeger, E. Prosperi, S. Prosperi.  Measurer E. 
       Prosperi.  0.35-m f/10 Schmidt-Cassegrain + CCD.
    246 Klet Observatory-KLENOT.  Observers M. Tichy, J. Ticha.  Measurer M. Tichy. 
        1.06-m f/2.7 reflector + 2048x2048 CCD.
    703 Catalina Sky Survey.  Observer K. W. Wierzchos.  Measurers E. J. 
       Christensen, G. A. Farneth, D. C. Fuls, A. R. Gibbs, A. D. Grauer, H. 
       Groeller, R. A. Kowalski, S. M. Larson, G. J. Leonard, T. A. Pruyne, D. 
       Rankin, R. L. Seaman, F. C. Shelly, K. W. Wierzchos.  0.68-m Schmidt + 10K 
       CCD.
    C47 Nonndorf.  Observer G. Dangl.  0.25-m f/4.8 reflector + CCD.
    C95 SATINO Remote Observatory, Haute Provence.  Observer J. Jahn.  0.60-m f/3.2 
       Newtonian reflector + CCD.
    G96 Mt. Lemmon Survey.  Observer G. J. Leonard.  Measurers E. J. Christensen, 
       G. A. Farneth, D. C. Fuls, A. R. Gibbs, A. D. Grauer, H. Groeller, R. A. 
       Kowalski, S. M. Larson, G. J. Leonard, T. A. Pruyne, D. Rankin, R. L. Seaman,
        F. C. Shelly, K. W. Wierzchos.  1.5-m reflector + 10K CCD.
    I52 Steward Observatory, Mt. Lemmon Station.  Observer K. W. Wierzchos.  
        Measurers E. J. Christensen, G. A. Farneth, D. C. Fuls, A. R. Gibbs, A. D. 
       Grauer, H. Groeller, R. A. Kowalski, S. M. Larson, G. J. Leonard, T. A. 
       Pruyne, D. Rankin, R. L. Seaman, F. C. Shelly, K. W. Wierzchos.  1.0-m 
       reflector + CCD.
    J95 Great Shefford.  Observer P. Birtwhistle.  0.41-m f/6.3 Schmidt-Cassegrain 
       + CCD.
    K63 G. Pascoli Observatory, Castelvecchio Pascoli.  Observer R. Bacci.  0.4-m 
       f/3.2 Newtonian reflector + CCD.
    K87 Dettelbach Vineyard Observatory.  Observer B. Haeusler.  0.3-m f/5.7 
       Schmidt-Cassegrain + CCD.
    L01 Visnjan Observatory, Tican.  Observer K. Korlevic.  1.0-m f/2.9 reflector + 
       CCD.
    L04 ROASTERR-1 Observatory, Cluj-Napoca.  Observer L. Hudin.  0.3-m f/5 
       reflector + CCD.
    Z80 Northolt Branch Observatory.  Observer G. Wells.  0.25-m f/8.0 
       Ritchey-Chretien + CCD.
    Z99 Clixby Observatory, Cleethorpes.  Observer A. Mickleburgh.  0.36-m f/8 
       Schmidt-Cassegrain + CCD.
    
    Orbital elements:
    2020 ET                                                  Earth MOID = 0.0143 AU
    Epoch 2020 May 31.0 TT = JDT 2459000.5                  Bell
    M  18.73150              (2000.0)            P               Q
    n   0.26528753     Peri.  174.85359     -0.99928377     +0.03742806
    a   2.3987859      Node     7.29837     -0.03609589     -0.89857599
    e   0.5783663      Incl.    2.51520     -0.01135897     -0.43721886
    P   3.72           H   25.8           G   0.15           U   6
    Residuals in seconds of arc
    200315 G96  0.4+  0.1+    200315 Z99  0.2+  0.2+    200316 I52  0.1-  0.0
    200315 G96  0.2-  0.2+    200315 160  0.7+  0.2+    200316 I52  0.0   0.1+
    200315 G96  0.1-  0.5+    200315 160 (1.8-  1.0+)   200316 703  0.2+  0.0
    200315 G96  0.2-  0.3+    200315 160  0.9-  0.2-    200316 703  0.4-  0.0
    200315 G96  0.3+  0.0     200315 160  0.5-  0.6-    200316 703  0.0   0.1-
    200315 G96  0.2+  0.2-    200315 160  0.1-  0.2-    200316 703  0.1+  0.2+
    200315 G96  0.2+  0.1+    200315 K63  0.6-  0.3+    200316 I52  0.0   0.0
    200315 G96  0.4-  0.1+    200315 160  0.3+  0.0     200316 I52  0.2-  0.1-
    200315 G96  0.3+  0.1-    200315 K63  0.3-  0.5+    200316 I52  0.1-  0.0
    200315 G96  0.1-  0.0     200315 K63  0.7+  0.3-    200316 I52  0.3-  0.3+
    200315 G96  0.4-  0.1+    200315 130  0.5-  0.4+    200316 033  0.6+  0.7-
    200315 G96  0.3+  0.3-    200315 130  0.2-  0.2+    200316 033  0.3+  0.7-
    200315 G96  0.3+  0.1-    200315 130  0.7-  0.2+    200316 033  0.3-  0.6-
    200315 G96  0.4+  0.1-    200316 K87  0.6+  0.4-    200316 C47  0.3-  0.2+
    200315 G96  0.1-  0.0     200316 C95  0.6-  0.4-    200316 C47  0.2-  0.1+
    200315 G96  0.1-  0.4+    200316 J95  0.1-  0.0     200316 C47  0.5-  0.4+
    200315 L04  0.4+  0.2-    200316 J95  0.2-  0.2+    200316 C47  0.3-  0.4+
    200315 L01  0.1-  0.3-    200316 J95  0.0   0.0     200316 C47  0.2-  0.3+
    200315 L01  0.1-  0.1+    200316 J95  0.0   0.3-    200316 246  0.4+  0.0
    200315 L04  0.0   0.4+    200316 Z80  0.5-  0.4+    200316 246  0.2-  0.0
    200315 L01  0.1+  0.4-    200316 C95  0.3+  0.4-    200316 246  0.7+  0.1-
    200315 L01  0.2+  0.2+    200316 K87  0.6+  0.3-    200316 246  0.1-  0.4-
    200315 L01  0.4+  0.1-    200316 Z80  0.7+  0.6+    200316 246  0.0   0.1-
    200315 L01  0.1+  0.1-    200316 C95  0.4+  0.4-    200316 246  0.1+  0.5+
    200315 L01  0.0   0.1+    200316 Z80  0.1-  0.1+    200316 246  0.2+  0.3-
    200315 L04  0.3+  0.4+    200316 K87  0.3+  0.3-    200316 246  0.1-  0.3+
    200315 L04  0.4-  0.2+    200316 C95  0.3+  1.0-    200316 246  0.6+  0.9+
    200315 Z99  0.0   0.3-    200316 I52  0.1+  0.0
    200315 Z99  0.1+  0.3-    200316 I52  0.1-  0.4+
    
    Ephemeris:
    2020 ET                  a,e,i = 2.40, 0.58, 3                   q = 1.0114
    Date    TT    R. A. (2000) Decl.     Delta      r    Elong.  Phase     V
    2020 02 16    07 53 14.4 +35 18 27   0.1384  1.1033   144.4    31.4    23.1
    ...
    2020 03 02    08 18 44.8 +37 40 12   0.07158 1.0419   133.8    43.3    21.8
    ...
    2020 03 10    09 29 59.9 +38 01 32   0.03879 1.0221   137.6    40.9    20.4
    ...
    2020 03 16    12 29 20.7 +24 39 56   0.02104 1.0138   154.6    24.9    18.6
    2020 03 17    13 12 36.3 +18 08 53   0.02007 1.0130   153.2    26.3    18.5
    2020 03 18    13 54 30.3 +10 41 45   0.02005 1.0123   147.8    31.5    18.7
    ...
    2020 03 24    16 30 25.0 -19 17 02   0.03468 1.0119   114.6    63.6    20.8
    ...
    2020 04 01    17 33 33.7 -28 31 28   0.06593 1.0207   107.2    69.3    22.4
    ...
    2020 04 16    18 01 44.7 -32 25 35   0.1264  1.0641   115.5    58.4    23.5
    
    A. U. Tomatic                (C) Copyright 2020 MPC           M.P.E.C. 2020-F10
    


    Read MPEC 2020-F09 Read MPEC 2020-F11


    MPEC number:

    Enter an MPEC number in one of the following forms:

    • 1997-B01 (the full form)
    • J97B01 (the packed version of the full form)
    • B01 (the abbreviated form)